Weather History for Indianapolis, IN

Change the Weather History Date:

Tuesday, May 13, 2014

  Actual Average (KEYE) Record (KEYE)
Temperature  
Mean Temperature 68 °F 62 °F  
Max Temperature 81 °F 72 °F 86 °F (2005)
Min Temperature 55 °F 52 °F 39 °F (1997)
Degree Days  
Heating Degree Days 0 5  
Month to date heating degree days 81  
Since 1 July heating degree days 5276  
Cooling Degree Days 2 2  
Month to date cooling degree days 15  
Year to date cooling degree days 30  
Growing Degree Days 18 (Base 50)    
Moisture  
Dew Point 62 °F    
Average Humidity 81    
Maximum Humidity 88    
Minimum Humidity 59    
Precipitation  
Precipitation 0.62 in 0.17 in 1.11 in (1999)
Month to date precipitation 2.56  
Year to date precipitation 14.10  
Sea Level Pressure  
Sea Level Pressure 30.02 in    
Wind  
Wind Speed 9 mph (SW)    
Max Wind Speed 21 mph    
Max Gust Speed 32 mph    
Visibility 8 miles    
Events Rain , Thunderstorm    
T = Trace of Precipitation, MM = Missing Value Source: NWS Daily Summary

Daily Weather History Graph

Daily Weather History Graph

Search for Another Location

Airport:

Trip Planner

Search our weather history database for the weather conditions in past years. The results will help you decide how hot, cold, wet, or windy it might be!

Date:

Astronomy

May. 13, 2014 Rise Set
Actual Time 6:31 AM EDT 8:51 PM EDT
Civil Twilight 6:01 AM EDT 9:22 PM EDT
Nautical Twilight 5:23 AM EDT 10:00 PM EDT
Astronomical Twilight 4:42 AM EDT 10:41 PM EDT
Moon 7:52 PM EDT (5/13) 5:47 AM EDT (5/13)
Length of Visible Light 15h 21m
Length of Day
14h 20m
Waxing Gibbous, 98% of the Moon is Illuminated
May 13
Waxing Gibbous
May 14
Full
May 21
Last Quarter
May 28
New
Jun 5
First Quarter

Hourly Weather History & Observations

Time (EDT) Temp. Dew Point Humidity Pressure Visibility Wind Dir Wind Speed Gust Speed Precip Events Conditions
12:15 AM 70.3 °F 63.9 °F 80% 30.01 in 10.0 mi South 6.9 mph - N/A   Clear
12:35 AM 70.2 °F 63.7 °F 80% 30.01 in 10.0 mi South 6.9 mph - N/A   Clear
12:55 AM 70.0 °F 63.7 °F 80% 30.00 in 10.0 mi South 5.8 mph - N/A   Clear
1:15 AM 71.2 °F 64.0 °F 78% 30.00 in 10.0 mi South 8.1 mph - N/A   Clear
1:35 AM 70.3 °F 64.2 °F 81% 30.00 in 10.0 mi South 8.1 mph - N/A   Clear
1:55 AM 70.5 °F 64.4 °F 81% 29.99 in 10.0 mi South 8.1 mph - N/A Rain Light Rain
2:15 AM 70.7 °F 64.4 °F 80% 29.99 in 10.0 mi South 6.9 mph - N/A   Clear
2:35 AM 70.7 °F 64.6 °F 81% 29.98 in 10.0 mi South 9.2 mph - N/A   Scattered Clouds
2:55 AM 70.7 °F 64.6 °F 81% 29.98 in 10.0 mi South 10.4 mph - N/A   Light Drizzle
3:15 AM 70.7 °F 64.4 °F 80% 29.97 in 10.0 mi South 9.2 mph - N/A   Scattered Clouds
3:35 AM 70.9 °F 64.4 °F 80% 29.96 in 10.0 mi South 10.4 mph - N/A   Clear
3:55 AM 70.7 °F 64.2 °F 80% 29.96 in 10.0 mi South 10.4 mph - N/A   Clear
4:15 AM 70.7 °F 64.0 °F 79% 29.96 in 10.0 mi South 9.2 mph - N/A   Scattered Clouds
4:35 AM 70.7 °F 64.0 °F 79% 29.96 in 10.0 mi South 8.1 mph - N/A   Scattered Clouds
4:55 AM 70.9 °F 64.2 °F 79% 29.96 in 10.0 mi South 10.4 mph - N/A   Overcast
5:15 AM 70.7 °F 64.0 °F 79% 29.96 in 10.0 mi South 9.2 mph - N/A   Overcast
5:55 AM 69.8 °F 63.7 °F 81% 29.96 in 10.0 mi South 8.1 mph - N/A   Clear
6:15 AM 69.6 °F 63.7 °F 81% 29.96 in 10.0 mi South 8.1 mph - N/A   Clear
6:35 AM 69.8 °F 63.9 °F 81% 29.96 in 10.0 mi South 6.9 mph - N/A   Scattered Clouds
6:55 AM 69.8 °F 63.7 °F 81% 29.97 in 10.0 mi South 8.1 mph - N/A   Scattered Clouds
7:15 AM 70.2 °F 64.2 °F 81% 29.97 in 10.0 mi South 6.9 mph - N/A   Scattered Clouds
7:35 AM 70.9 °F 64.4 °F 80% 29.98 in 10.0 mi South 8.1 mph - N/A   Mostly Cloudy
7:55 AM 71.4 °F 64.8 °F 79% 29.98 in 10.0 mi South 9.2 mph - N/A   Mostly Cloudy
9:15 AM 73.6 °F 65.5 °F 76% 29.98 in 10.0 mi South 11.5 mph - N/A   Overcast
9:35 AM 74.5 °F 65.8 °F 74% 29.99 in 10.0 mi South 12.7 mph - N/A   Mostly Cloudy
9:55 AM 75.0 °F 66.2 °F 74% 29.97 in 7.0 mi South 13.8 mph 18.4 mph N/A   Scattered Clouds
10:15 AM 75.2 °F 66.0 °F 73% 29.97 in 10.0 mi SSW 15.0 mph 20.7 mph N/A   Scattered Clouds
11:55 AM 79.5 °F 64.9 °F 61% 29.99 in 10.0 mi SW 20.7 mph 27.6 mph N/A   Mostly Cloudy
12:35 PM 79.0 °F 63.3 °F 59% 29.99 in 10.0 mi SW 19.6 mph 28.8 mph N/A   Mostly Cloudy
1:15 PM 74.5 °F 61.9 °F 65% 29.99 in 10.0 mi SW 16.1 mph 32.2 mph N/A Thunderstorm Mostly Cloudy
1:35 PM 72.0 °F 63.5 °F 75% 30.01 in 2.5 mi WSW 16.1 mph 29.9 mph 0.11 in Rain Heavy Rain
1:55 PM 72.1 °F 66.6 °F 83% 30.00 in 7.0 mi WSW 10.4 mph 18.4 mph 0.11 in   Mostly Cloudy
2:15 PM 71.8 °F 65.5 °F 80% 30.03 in 10.0 mi West 12.7 mph 16.1 mph 0.01 in Rain , Thunderstorm Light Thunderstorms and Rain
2:35 PM 69.1 °F 64.2 °F 84% 30.03 in 4.0 mi WSW 12.7 mph 23.0 mph 0.14 in Rain , Thunderstorm Thunderstorms and Rain
2:55 PM 68.5 °F 63.5 °F 84% 30.02 in 7.0 mi SW 9.2 mph - 0.19 in Rain Light Rain
3:15 PM 68.9 °F 64.6 °F 86% 30.02 in 7.0 mi WSW 8.1 mph - 0.03 in Rain Light Rain
3:35 PM 70.2 °F 65.7 °F 86% 30.02 in 10.0 mi SSW 8.1 mph - 0.03 in   Mostly Cloudy
3:55 PM 71.8 °F 66.7 °F 84% 30.02 in 10.0 mi SW 15.0 mph - 0.03 in   Mostly Cloudy
4:15 PM 73.6 °F 64.2 °F 72% 30.02 in 10.0 mi WSW 12.7 mph 17.3 mph N/A   Scattered Clouds
4:35 PM 74.3 °F 63.5 °F 69% 30.02 in 10.0 mi WSW 12.7 mph - N/A   Scattered Clouds
4:55 PM 73.2 °F 64.0 °F 73% 30.02 in 10.0 mi WSW 11.5 mph 17.3 mph N/A   Mostly Cloudy
5:15 PM 70.2 °F 63.5 °F 79% 30.03 in 10.0 mi West 13.8 mph - N/A   Overcast
5:35 PM 68.2 °F 63.5 °F 85% 30.03 in 2.5 mi NW 9.2 mph - 0.03 in Rain Rain
5:55 PM 67.1 °F 63.0 °F 87% 30.04 in 2.0 mi WNW 5.8 mph - 0.07 in Rain Rain
6:15 PM 66.6 °F 62.6 °F 87% 30.04 in 2.5 mi WNW 10.4 mph 16.1 mph 0.02 in   Heavy Drizzle
6:35 PM 65.7 °F 61.7 °F 87% 30.05 in 4.0 mi WNW 9.2 mph - 0.03 in   Light Drizzle
6:55 PM 64.6 °F 59.9 °F 85% 30.05 in 5.0 mi NW 9.2 mph 17.3 mph 0.04 in Rain Light Rain
7:15 PM 63.7 °F 59.4 °F 86% 30.06 in 2.5 mi WNW 8.1 mph - 0.05 in Rain Heavy Rain
7:35 PM 62.2 °F 58.3 °F 87% 30.06 in 1.8 mi NW 10.4 mph - 0.17 in Rain Rain
7:55 PM 61.3 °F 57.4 °F 87% 30.07 in 10.0 mi NW 10.4 mph 17.3 mph 0.17 in   Overcast
8:15 PM 60.8 °F 56.5 °F 86% 30.08 in 7.0 mi NW 13.8 mph 19.6 mph N/A   Overcast
8:35 PM 59.5 °F 55.4 °F 86% 30.09 in 7.0 mi NW 9.2 mph - N/A   Overcast
8:55 PM 59.0 °F 54.3 °F 84% 30.09 in 7.0 mi NW 10.4 mph - N/A   Overcast
9:15 PM 58.1 °F 53.6 °F 85% 30.10 in 10.0 mi WNW 5.8 mph - N/A Rain Light Rain
9:35 PM 58.1 °F 53.8 °F 86% 30.11 in 7.0 mi WNW 3.5 mph - 0.01 in   Light Drizzle
9:55 PM 58.1 °F 54.1 °F 87% 30.13 in 7.0 mi West 4.6 mph - 0.01 in   Light Drizzle
10:15 PM 58.1 °F 54.5 °F 88% 30.13 in 5.0 mi WNW 5.8 mph - N/A   Drizzle
10:35 PM 57.2 °F 52.9 °F 85% 30.14 in 7.0 mi NW 9.2 mph - N/A   Overcast
10:55 PM 56.7 °F 52.3 °F 85% 30.13 in 10.0 mi NNW 9.2 mph - N/A   Overcast
11:15 PM 56.3 °F 52.0 °F 85% 30.14 in 10.0 mi NNW 9.2 mph - N/A   Mostly Cloudy
11:35 PM 56.3 °F 51.8 °F 85% 30.14 in 10.0 mi NW 9.2 mph - N/A   Overcast
11:55 PM 55.9 °F 50.9 °F 83% 30.14 in 10.0 mi NNW 10.4 mph - N/A   Overcast